Showing default

CHEOPS, 44874

Orbit data source: Space-Track

CHEOPS, 44874 is a payload satellite owned by ESA (ESA) in SSO that was launched on Wed, 18 Dec 2019 UTC via a SOYUZ-ST-A launch vehicle from the French Guiana (FRGUI). Payload-class satellites include a variety of spacecraft equipped with specific instruments for various scientific and technological missions. These include communications satellites like Starlink; space stations such as the ISS; scientific satellites like the Hubble; Earth observation satellites from companies like Planet Labs, Umbra, and HawkEye 360; GPS; miniature CubeSats for education and research; and military/defense satellites.

Loading next visibility...
Identifier
44874, 2019-092B
Orbit
SSO
Country
Flag of ESAESA
Related business
Manufacturer
Airbus Barajas
Mission
Operational Civil Astronomy
Bus & Motor
SEOSAT, AOCS
Mass
273 kg wet, 273 kg dry
Launch date (UTC)
2019-12-18 (6 years ago)
Launch vehicle
SOYUZ-ST-A
Launch site
French Guiana (FRGUI)
Object type
Payload
Rocket body
Debris
Shape & HBR
Hex Cyl + 1 Pan, Unknown HBR
Radar Cross Section
2.624 m², Large (>1 m²)

Expand to show TLE details & history
Last TLE update: 13 hours ago

TLE from 13 hours ago
0 CHEOPS
1 44874U 19092B   25258.26564932  .00000484  00000-0  10667-3 0  9996
2 44874  98.1530  85.3803 0009502 237.5549 122.4734 14.61650474305732
Epoch: 2025-09-15T06:22Z
TLE epoch observation values (Epoch: 2025-09-15T06:22:32.101Z)
Latitude
0.00002°
Longitude
-4.72624°
Altitude
694.449 km
Speed
7.507 km/s
True Right ascension
05h 41m 31s
True Declination
0° 00' 00"
Sunlit
Object was in daylight at epoch
Visualization orbit readout
Latitude
Unknown
Longitude
Unknown
Altitude
Unknown
Speed
Unknown
Apparent Right ascension
Unknown
Apparent Declination
Unknown
Sunlit
N/A
Visualization observer readout
Local Sidereal Time
11:56:04
Azimuth
Unknown
Elevation
Unknown
Doppler factor
Unknown
Orbital elements
Apogee altitude
691.638 km
Perigee altitude
678.215 km
Semi-major axis
7,063.064 km
Eccentricity
0.00095
Inclination
98.153°
RAAN
85.3803°
Arg. of periapsis
237.5549°
True anomaly
122.5652°
Mean anomaly
122.4734°
Eccentric anomaly
122.51931°
Mean motion
3.6564 °/min
Orbital period
98.46 mins
BSTAR
0.00010667
Loading maneuver chart data...
Computing Atmospheric mass density...
Loading historical data...
Loading historical data...
Loading historical data...
Loading historical data...
Loading historical data...
Loading historical data...
Loading historical data...

Documentation

Showing up to 5 results
|